[[{"header":{"parameterUnit":"m.s-1","parameterCategory":2,"la1":30.2991,"la2":30.254,"lo1":-89.0895,"lo2":-89.0444,"dy":0.0017,"dx":0.0017,"nx":28,"ny":28,"refTime":"2024-07-13T09:00:00:Z","depth":"0","parameterNumber":2,"parameterNumberName":"U-component_of_CURRENTS"},"data":[0,0,0,0,0,0,0,0,0,0,0,0,0,0,0,0,0,0,0,0,0,0,0,0,0,0,0,0,0,0,0,0,0,0,0,0,0,0,0,0,0,0,0,0,0,0,0,0,0,0,0,0,0,0,0,0,0,0,0.224,0.224,0,0.2285,0.2286,0.2286,0.2294,0.2294,0.2293,0.2293,0.2331,0.2332,0.2333,0,0,0,0,0,0,0,0,0,0,0,0,0,0.2206,0.2206,0.224,0.224,0.2241,0.2285,0.2286,0.2286,0.2294,0.2294,0.2293,0.2293,0.233,0.2332,0.2334,0,0,0,0,0,0,0,0,0,0,0,0,0,0.2233,0.2206,0.224,0.225,0.2251,0.2285,0.2286,0.2287,0.2294,0.2294,0.2293,0.2293,0.233,0.2332,0.2334,0.2359,0,0,0.234,0.2341,0,0,0,0,0,0,0,0,0.2231,0.2234,0.2248,0.2249,0.2251,0.2283,0.2288,0.231,0.2294,0.2278,0.2293,0.2292,0.2314,0.2318,0.2328,0.2361,0.2362,0.234,0.2342,0.2342,0.2343,0,0,0,0,0,0,0,0.2229,0.2233,0.2258,0.2248,0.225,0.2268,0.2271,0.2292,0.2299,0.228,0.228,0.2285,0.2315,0.2326,0.2329,0.2363,0.234,0.2342,0.2343,0.2344,0.2435,0.2436,0,0,0,0,0,0,0.2222,0.2231,0.2257,0.2259,0.2239,0.2269,0.2272,0.2274,0.2299,0.2303,0.2286,0.2285,0.2323,0.2327,0.233,0.2393,0.2342,0.2344,0.2346,0.2434,0.2435,0.2436,0,0,0,0,0,0,0.2221,0.2223,0.2255,0.2246,0.2251,0.227,0.2272,0.2275,0.2288,0.2304,0.2307,0.2296,0.2322,0.2327,0.2359,0.2393,0.2345,0.2347,0.2432,0.2434,0.2436,0.2498,0,0,0,0,0,0,0.2219,0.2223,0.2224,0.2245,0.2251,0.2273,0.2272,0.2276,0.2292,0.2292,0.2314,0.2316,0.2322,0.2356,0.2361,0.2395,0.2349,0.2431,0.2433,0.2435,0.2494,0.2502,0.2508,0,0,0,0,0,0.2218,0.2216,0.2224,0.2227,0.2251,0.2274,0.2279,0.229,0.2293,0.23,0.2321,0.2316,0.2373,0.2359,0.2364,0.24,0.243,0.2433,0.2435,0.2491,0.25,0.2508,0,0,0,0,0,0,0.22,0.2217,0.2226,0.2229,0.2251,0.2275,0.2282,0.2295,0.2318,0.2319,0.2333,0.2338,0.2381,0.2378,0.2362,0.2431,0.24,0.2404,0.2441,0.2449,0.2456,0.2432,0.2351,0,0,0,0,0,0.2198,0.2202,0.2226,0.2231,0.224,0.2265,0.2276,0.2288,0.231,0.2319,0.2337,0.236,0.2397,0.2411,0.2433,0.2471,0.25,0.2496,0.2502,0.2508,0.2492,0.2588,0.2603,0.2445,0.2445,0.2445,0,0,0.2193,0.2203,0.2206,0.2228,0.2245,0.2265,0.227,0.2289,0.2311,0.2321,0.2354,0.2385,0.2412,0.2458,0.2476,0.246,0.2572,0.2511,0.2516,0.2497,0.2592,0.2608,0.2622,0.2447,0.2447,0.2446,0,0,0.2187,0.2194,0.22,0.2219,0.2245,0.2264,0.2271,0.2301,0.2317,0.2352,0.2379,0.2427,0.246,0.2501,0.2524,0.2578,0.2606,0.2588,0.2605,0.2699,0.2713,0.2726,0.2803,0.2822,0.259,0.259,0.259,0,0.2183,0.2193,0.2207,0.2221,0.2237,0.2265,0.2282,0.2308,0.2346,0.2373,0.2361,0.2461,0.248,0.2568,0.2582,0.2594,0.2647,0.2577,0.271,0.2723,0.2735,0.2811,0.2831,0.2594,0.2593,0.2593,0.2593,0,0.2186,0.2198,0.2203,0.2231,0.2251,0.2269,0.2305,0.2334,0.2356,0.2389,0.2466,0.2508,0.2568,0.2592,0.2598,0.2702,0.2714,0.2714,0.2693,0.2755,0.283,0.285,0.2598,0.2597,0.2596,0.2595,0,0,0.2167,0.2199,0.2201,0.2217,0.2257,0.2273,0.2316,0.237,0.2411,0.2455,0.2519,0.2587,0.2621,0.2647,0.2689,0.2756,0.2889,0.2764,0.2768,0.2845,0.3103,0.3156,0.3182,0.2929,0.2932,0.2934,0.313,0,0.217,0.2191,0.2209,0.2239,0.2256,0.2295,0.2333,0.2387,0.2435,0.2504,0.2573,0.2645,0.2643,0.269,0.2762,0.286,0.2941,0.2835,0.3025,0.303,0.3074,0.3207,0.3208,0.3387,0.3149,0.3153,0.3155,0,0.2169,0.2185,0.2206,0.2249,0.2259,0.2282,0.2354,0.2396,0.2499,0.2539,0.2629,0.2688,0.2807,0.2786,0.2988,0.2928,0.3011,0.3075,0.3085,0.3118,0.312,0.3282,0.3431,0.3255,0.3185,0.3183,0.3181,0,0.2149,0.2184,0.2198,0.2211,0.2263,0.2285,0.2322,0.2409,0.2458,0.2578,0.2629,0.2772,0.2855,0.2982,0.3111,0.3069,0.3327,0.3292,0.342,0.3424,0.3449,0.345,0.3451,0.3436,0.3435,0.3435,0.3434,0,0.2145,0.2159,0.2187,0.2195,0.222,0.2268,0.2318,0.2376,0.2479,0.255,0.2651,0.2753,0.2908,0.3067,0.3163,0.3375,0.3387,0.3452,0.3496,0.3472,0.3473,0.3337,0.324,0.3442,0.3441,0.3439,0.3438,0,0.2125,0.2145,0.216,0.2198,0.2209,0.2229,0.2298,0.2346,0.2441,0.2542,0.2586,0.2777,0.2998,0.3156,0.3388,0.346,0.3554,0.3701,0.3655,0.369,0.3624,0.3532,0.3457,0.3382,0.3881,0.3884,0.3886,0,0.2113,0.2118,0.2141,0.2144,0.2157,0.2192,0.2222,0.2316,0.2377,0.2564,0.2622,0.2861,0.3022,0.3392,0.3611,0.3843,0.3659,0.3947,0.3858,0.3649,0.3579,0.3344,0.3267,0.3924,0.3927,0.3929,0.393,0,0.2086,0.2092,0.21,0.2099,0.2114,0.2141,0.2196,0.2236,0.2363,0.2466,0.2646,0.2793,0.3181,0.3449,0.3766,0.3922,0.375,0.3995,0.3805,0.3645,0.3364,0.3304,0.3735,0.3948,0.3946,0.3945,0.3944,0.3943,0.2049,0.204,0.2038,0.2034,0.2053,0.207,0.2079,0.2174,0.2267,0.2411,0.2606,0.2814,0.3221,0.3696,0.3839,0.4022,0.3876,0.3948,0.387,0.3658,0.3526,0.3989,0.4226,0.4226,0.4226,0.4226,0.4226,0,0.1969,0.1964,0.1968,0.1955,0.1947,0.1983,0.204,0.206,0.2147,0.2347,0.2511,0.2904,0.3238,0.3568,0.3911,0.3863,0.3725,0.3761,0.3405,0.3352,0.3825,0.3765,0.388,0.388,0.388,0.388,0.388,0.3881,0.192,0.1885,0.1884,0.1832,0.1832,0.1816,0.1828,0.1903,0.203,0.2237,0.2439,0.2652,0.3028,0.3398,0.3541,0.3559,0.325,0.3182,0.3043,0.3341,0.3348,0.3354,0.3271,0.3281,0.3281,0.2494,0.2488,0.2484]},{"header":{"parameterUnit":"m.s-1","parameterCategory":2,"la1":30.2991,"la2":30.254,"lo1":-89.0895,"lo2":-89.0444,"dy":0.0017,"dx":0.0017,"nx":28,"ny":28,"refTime":"2024-07-13T09:00:00:Z","depth":"0","parameterNumber":3,"parameterNumberName":"V-component_of_CURRENTS"},"data":[0,0,0,0,0,0,0,0,0,0,0,0,0,0,0,0,0,0,0,0,0,0,0,0,0,0,0,0,0,0,0,0,0,0,0,0,0,0,0,0,0,0,0,0,0,0,0,0,0,0,0,0,0,0,0,0,0,0,-0.02,-0.02,0,-0.0218,-0.0219,-0.0219,-0.0253,-0.0253,-0.0254,-0.0254,-0.0347,-0.0349,-0.0351,0,0,0,0,0,0,0,0,0,0,0,0,0,-0.0209,-0.0209,-0.02,-0.02,-0.02,-0.0218,-0.0219,-0.0219,-0.0253,-0.0253,-0.0254,-0.0255,-0.0346,-0.0349,-0.0351,0,0,0,0,0,0,0,0,0,0,0,0,0,-0.0215,-0.0209,-0.02,-0.0219,-0.0221,-0.0218,-0.0219,-0.0219,-0.0252,-0.0253,-0.0254,-0.0255,-0.0346,-0.0348,-0.0351,-0.0351,0,0,-0.036,-0.0361,0,0,0,0,0,0,0,0,-0.0214,-0.0214,-0.0216,-0.0218,-0.022,-0.0234,-0.0256,-0.0267,-0.0252,-0.0241,-0.0254,-0.0255,-0.0315,-0.032,-0.0322,-0.0356,-0.036,-0.036,-0.0362,-0.0363,-0.0364,0,0,0,0,0,0,0,-0.0214,-0.0214,-0.0208,-0.0216,-0.0218,-0.0231,-0.0233,-0.0258,-0.0275,-0.0242,-0.0244,-0.0245,-0.0317,-0.0319,-0.0324,-0.0361,-0.036,-0.0363,-0.0365,-0.0366,-0.0399,-0.0398,0,0,0,0,0,0,-0.0208,-0.0213,-0.0208,-0.0209,-0.0218,-0.023,-0.0232,-0.0229,-0.0273,-0.028,-0.0244,-0.0247,-0.0313,-0.0321,-0.0328,-0.0312,-0.0363,-0.0366,-0.0368,-0.04,-0.0399,-0.0398,0,0,0,0,0,0,-0.0208,-0.0207,-0.0207,-0.0211,-0.0212,-0.0229,-0.0225,-0.0229,-0.023,-0.0274,-0.0282,-0.0242,-0.0314,-0.0324,-0.0341,-0.0317,-0.0367,-0.037,-0.0401,-0.0399,-0.0398,-0.0294,0,0,0,0,0,0,-0.0208,-0.0207,-0.0199,-0.0211,-0.0212,-0.0192,-0.0224,-0.0228,-0.0229,-0.0232,-0.0274,-0.0284,-0.0316,-0.0336,-0.0344,-0.0322,-0.0372,-0.0402,-0.04,-0.0399,-0.0298,-0.0289,-0.0281,0,0,0,0,0,-0.0209,-0.0185,-0.0198,-0.0198,-0.0201,-0.0191,-0.0192,-0.0209,-0.0227,-0.0216,-0.0248,-0.0282,-0.0332,-0.0337,-0.0347,-0.0325,-0.0403,-0.0401,-0.0399,-0.0302,-0.0291,-0.0281,0,0,0,0,0,0,-0.018,-0.0186,-0.0202,-0.0181,-0.0184,-0.0196,-0.0186,-0.0202,-0.0216,-0.0222,-0.0271,-0.0282,-0.029,-0.0322,-0.0328,-0.0331,-0.0373,-0.0373,-0.0296,-0.0286,-0.0278,-0.0255,-0.0375,0,0,0,0,0,-0.0172,-0.016,-0.0169,-0.0154,-0.0152,-0.017,-0.0169,-0.0178,-0.0194,-0.0201,-0.0231,-0.0264,-0.0288,-0.0299,-0.0326,-0.0325,-0.0355,-0.0319,-0.031,-0.0302,-0.029,-0.0319,-0.0312,-0.0392,-0.0392,-0.0392,0,0,-0.0158,-0.0159,-0.0153,-0.0148,-0.0153,-0.0132,-0.0171,-0.0158,-0.0142,-0.0209,-0.0199,-0.0237,-0.0283,-0.0281,-0.0288,-0.0305,-0.0293,-0.03,-0.0293,-0.0285,-0.0316,-0.0308,-0.0302,-0.039,-0.0391,-0.0391,0,0,-0.0118,-0.0124,-0.0101,-0.0094,-0.0092,-0.0098,-0.0092,-0.0099,-0.0104,-0.0102,-0.0146,-0.0164,-0.0202,-0.0219,-0.0237,-0.0198,-0.0251,-0.0213,-0.0145,-0.0173,-0.0166,-0.0161,-0.0175,-0.0172,-0.0204,-0.0203,-0.0203,0,-0.0105,-0.0075,-0.0091,-0.0062,-0.0049,-0.0078,-0.0044,-0.0046,-0.0058,-0.0057,-0.0087,-0.013,-0.0168,-0.0164,-0.0149,-0.0176,-0.0202,-0.0178,-0.016,-0.0156,-0.0152,-0.0169,-0.0166,-0.0198,-0.0199,-0.0199,-0.02,0,-0.0046,-0.0022,-0.0003,0.002,0.0035,0.0061,0.0057,0.0067,0.0048,0.0037,0.0031,-0.0019,-0.0045,-0.0058,-0.0092,-0.0079,-0.0108,-0.0149,-0.0182,-0.0137,-0.0158,-0.0157,-0.0191,-0.0192,-0.0194,-0.0195,0,0,-0.002,0.0026,0.0033,0.0058,0.0081,0.01,0.0134,0.0153,0.0175,0.0148,0.0168,0.0127,0.009,0.0068,0.0022,0.0005,0.0012,-0.0051,-0.0055,-0.0057,-0.004,-0.0052,-0.0054,-0.003,-0.003,-0.003,-0.006,0,0.0027,0.0094,0.0107,0.0174,0.0209,0.0206,0.0242,0.0255,0.0249,0.0261,0.0211,0.0202,0.0141,0.0127,0.0104,0.0033,0.0016,0.0025,-0.0091,-0.0094,-0.0103,-0.0053,-0.0001,-0.0023,-0.006,-0.006,-0.006,0,0.0082,0.0119,0.019,0.0251,0.0266,0.0302,0.0351,0.0377,0.0386,0.038,0.0364,0.0313,0.0292,0.0222,0.0141,0.0147,0.0067,0.0008,0.0005,-0.0042,-0.0105,-0.0078,-0.0022,-0.0149,-0.006,-0.006,-0.006,0,0.011,0.0181,0.0238,0.026,0.0321,0.0353,0.0382,0.041,0.0441,0.0449,0.0464,0.0418,0.0396,0.0299,0.018,0.0156,0.0085,0.0029,-0.0054,-0.0056,-0.0051,-0.0053,-0.0124,-0.0032,-0.0032,-0.0032,-0.0032,0,0.016,0.0208,0.0255,0.0289,0.0361,0.0388,0.0458,0.0482,0.0521,0.0571,0.0518,0.0545,0.0411,0.0348,0.0225,0.0104,0.0115,-0.0024,-0.0059,-0.0013,-0.0011,-0.0157,-0.0248,-0.0033,-0.0033,-0.0033,-0.0032,0,0.019,0.022,0.0289,0.0354,0.0378,0.0426,0.0507,0.0557,0.0586,0.065,0.0653,0.064,0.0575,0.0438,0.0295,0.017,-0.0018,-0.0009,0.0066,0.0039,-0.0166,-0.0252,-0.0354,-0.0409,-0.0098,-0.0099,-0.0099,0,0.0218,0.0255,0.0328,0.037,0.0403,0.0473,0.0529,0.0582,0.0639,0.0715,0.0751,0.072,0.0726,0.053,0.0319,0.0123,-0.0016,0.0011,-0.0032,-0.015,-0.0274,-0.0321,-0.0363,0.0019,0.002,0.002,0.0021,0,0.0274,0.029,0.034,0.0413,0.0477,0.0557,0.0636,0.0693,0.0765,0.0832,0.0914,0.093,0.0773,0.0642,0.0379,0.0214,-0.0059,0.0014,-0.0127,-0.0194,-0.023,-0.0308,0.0012,0.0026,0.0025,0.0025,0.0024,0.0024,0.0311,0.0348,0.0403,0.0473,0.0544,0.0641,0.072,0.0811,0.0922,0.1061,0.106,0.1153,0.094,0.061,0.036,-0.0029,-0.0057,-0.014,-0.0235,-0.027,-0.0322,0.0014,-0.0009,-0.001,-0.001,-0.0011,-0.0011,0,0.0362,0.0401,0.0467,0.0557,0.0637,0.0669,0.0799,0.0894,0.1038,0.1189,0.1289,0.13,0.1015,0.0665,0.0154,-0.0183,-0.0313,-0.037,-0.0422,-0.0457,-0.0162,-0.0157,-0.0191,-0.0191,-0.0191,-0.019,-0.019,-0.019,0.0401,0.0459,0.0485,0.0622,0.069,0.0819,0.0901,0.1049,0.1186,0.1416,0.1545,0.161,0.1373,0.0453,-0.021,-0.0407,-0.0648,-0.0693,-0.0835,-0.0641,-0.0626,-0.0612,-0.0627,-0.0759,-0.076,-0.1044,-0.1047,-0.105]}],[{"header":{"parameterUnit":"m.s-1","parameterCategory":2,"la1":30.2991,"la2":30.254,"lo1":-89.0895,"lo2":-89.0444,"dy":0.0017,"dx":0.0017,"nx":28,"ny":28,"refTime":"2024-07-13T09:00:00:Z","depth":"2","parameterNumber":2,"parameterNumberName":"U-component_of_CURRENTS"},"data":[0,0,0,0,0,0,0,0,0,0,0,0,0,0,0,0,0,0,0,0,0,0,0,0,0,0,0,0,0,0,0,0,0,0,0,0,0,0,0,0,0,0,0,0,0,0,0,0,0,0,0,0,0,0,0,0,0,0,0.1268,0.1268,0,0.1343,0.1343,0.1344,0.1362,0.1362,0.1362,0.1361,0.1413,0.1414,0.1416,0,0,0,0,0,0,0,0,0,0,0,0,0,0.1157,0.1159,0.1267,0.1269,0.127,0.1343,0.1343,0.1344,0.1362,0.1362,0.1362,0.1361,0.1412,0.1414,0.1416,0,0,0,0,0,0,0,0,0,0,0,0,0,0.1214,0.1159,0.1267,0.1289,0.1292,0.1342,0.1343,0.1344,0.1362,0.1362,0.1361,0.1361,0.1412,0.1414,0.1417,0.1441,0,0,0.1424,0.1425,0,0,0,0,0,0,0,0,0.121,0.1217,0.1285,0.1288,0.1291,0.1344,0.1324,0.1376,0.1362,0.1333,0.1361,0.1361,0.139,0.1394,0.1406,0.1443,0.1445,0.1424,0.1426,0.1427,0.1428,0,0,0,0,0,0,0,0.1206,0.1215,0.1295,0.1286,0.129,0.1301,0.1308,0.1334,0.1361,0.1336,0.1338,0.135,0.1391,0.1404,0.1408,0.1446,0.1424,0.1426,0.1428,0.1429,0.1559,0.1561,0,0,0,0,0,0,0.1202,0.1211,0.1293,0.1297,0.1251,0.1304,0.1312,0.1326,0.1361,0.1367,0.135,0.135,0.14,0.1405,0.1409,0.1491,0.1427,0.1429,0.1431,0.1557,0.156,0.1562,0,0,0,0,0,0,0.1199,0.1208,0.129,0.1257,0.1269,0.1306,0.1322,0.1328,0.1352,0.1373,0.1377,0.137,0.14,0.1406,0.1453,0.1491,0.143,0.1433,0.1555,0.1558,0.1561,0.1622,0,0,0,0,0,0,0.1195,0.1207,0.1219,0.1257,0.127,0.1328,0.1323,0.133,0.1361,0.1362,0.1392,0.1395,0.14,0.145,0.1456,0.1493,0.1434,0.1553,0.1556,0.156,0.1617,0.1627,0.1635,0,0,0,0,0,0.1191,0.1209,0.1219,0.1229,0.1284,0.1329,0.1338,0.1361,0.1362,0.1379,0.1406,0.1395,0.1477,0.1454,0.146,0.1499,0.1551,0.1555,0.156,0.1614,0.1625,0.1634,0,0,0,0,0,0,0.1171,0.1214,0.1225,0.1256,0.1294,0.1333,0.1355,0.137,0.1405,0.1409,0.1421,0.1428,0.1485,0.1485,0.1458,0.1549,0.1512,0.1518,0.1551,0.1562,0.157,0.1571,0.1437,0,0,0,0,0,0.1172,0.1196,0.1238,0.1267,0.1286,0.1323,0.1345,0.1364,0.1399,0.1414,0.1437,0.1467,0.1509,0.1528,0.1558,0.1606,0.1627,0.1635,0.1644,0.1651,0.1658,0.1727,0.1742,0.1577,0.1577,0.1576,0,0,0.1174,0.1201,0.1215,0.1264,0.1295,0.1332,0.1335,0.1377,0.1413,0.1414,0.1471,0.1499,0.1529,0.1588,0.1613,0.1592,0.1714,0.1657,0.1663,0.1666,0.1733,0.1749,0.1764,0.158,0.1579,0.1579,0,0,0.1189,0.1214,0.1239,0.1271,0.1321,0.1347,0.1362,0.1411,0.1439,0.1496,0.1514,0.1565,0.1617,0.1653,0.1675,0.1749,0.1759,0.176,0.1803,0.1871,0.1885,0.1898,0.1961,0.1979,0.1761,0.1762,0.1762,0,0.1192,0.1228,0.1254,0.1288,0.1322,0.1355,0.1394,0.143,0.149,0.1527,0.152,0.1632,0.165,0.1737,0.1764,0.1769,0.1809,0.176,0.1882,0.1895,0.1907,0.1969,0.1988,0.1765,0.1765,0.1764,0.1764,0,0.1224,0.1258,0.1279,0.1331,0.1368,0.141,0.1461,0.1504,0.1539,0.1581,0.1674,0.1712,0.178,0.1797,0.1804,0.1905,0.1908,0.1887,0.1854,0.1927,0.1988,0.2007,0.177,0.1769,0.1768,0.1767,0,0,0.1229,0.1288,0.13,0.1329,0.1396,0.1431,0.1496,0.1573,0.1634,0.1687,0.1773,0.1845,0.1873,0.1901,0.1924,0.1978,0.2097,0.1972,0.1974,0.2032,0.226,0.216,0.217,0.2103,0.2106,0.2109,0.2274,0,0.1255,0.1311,0.1341,0.1408,0.1445,0.1496,0.1558,0.1629,0.1698,0.1785,0.1842,0.193,0.1912,0.1962,0.2015,0.2085,0.2147,0.2055,0.2183,0.2187,0.2086,0.2188,0.1868,0.1978,0.2292,0.2295,0.2297,0,0.1286,0.1318,0.1379,0.1453,0.1477,0.1524,0.1637,0.17,0.1819,0.1878,0.1967,0.2016,0.2123,0.2085,0.2238,0.2185,0.2232,0.2268,0.2275,0.217,0.212,0.1953,0.2,0.2328,0.2325,0.2323,0.2321,0,0.1281,0.1352,0.1399,0.1425,0.151,0.1559,0.1618,0.1734,0.18,0.1951,0.2014,0.2138,0.2213,0.2293,0.2364,0.2323,0.2519,0.2467,0.2422,0.2416,0.216,0.2124,0.2574,0.2574,0.2574,0.2573,0.2573,0,0.1299,0.1341,0.1402,0.143,0.1498,0.1567,0.1666,0.1746,0.1869,0.1959,0.2062,0.2153,0.227,0.2379,0.2425,0.2491,0.2576,0.2456,0.2459,0.2172,0.2138,0.244,0.2422,0.2579,0.2578,0.2577,0.2576,0,0.129,0.1331,0.1384,0.1467,0.1497,0.155,0.1663,0.1732,0.1861,0.1982,0.2033,0.2201,0.2361,0.2461,0.2616,0.2564,0.264,0.2637,0.2293,0.2251,0.2477,0.2461,0.2608,0.2606,0.2605,0.2603,0.2602,0,0.1287,0.1312,0.1389,0.1415,0.1455,0.1536,0.1591,0.1718,0.179,0.2001,0.205,0.225,0.2353,0.2536,0.2471,0.2528,0.2679,0.2308,0.2151,0.2497,0.2486,0.2472,0.2458,0.1852,0.1845,0.1839,0.1834,0,0.1267,0.1297,0.1327,0.1378,0.1431,0.1495,0.1584,0.1634,0.1793,0.19,0.2065,0.2168,0.2266,0.2181,0.2232,0.2211,0.2264,0.2187,0.2671,0.1879,0.1793,0.1779,0.1789,0.1782,0.1787,0.1791,0.1794,0.1796,0.1236,0.1245,0.1278,0.1327,0.1382,0.1444,0.1491,0.1587,0.169,0.1828,0.1962,0.2014,0.1892,0.1799,0.1807,0.1816,0.1924,0.1848,0.1863,0.1885,0.1754,0.1667,0.161,0.1614,0.1617,0.162,0.1623,0,0.1181,0.1197,0.1227,0.1276,0.131,0.1378,0.1472,0.1504,0.1602,0.1689,0.1797,0.1479,0.1406,0.1456,0.1301,0.1266,0.1219,0.1325,0.1231,0.1277,0.132,0.116,0.086,0.086,0.086,0.086,0,0,0.1147,0.1141,0.1158,0.1186,0.1239,0.1297,0.1351,0.1402,0.1446,0.1402,0.1363,0.1353,0.13,0.1021,0.0951,0.0955,0.1149,0.0924,0.1495,0.1425,0.1471,0.1534,0.1328,0,0,0,0,0]},{"header":{"parameterUnit":"m.s-1","parameterCategory":2,"la1":30.2991,"la2":30.254,"lo1":-89.0895,"lo2":-89.0444,"dy":0.0017,"dx":0.0017,"nx":28,"ny":28,"refTime":"2024-07-13T09:00:00:Z","depth":"2","parameterNumber":3,"parameterNumberName":"V-component_of_CURRENTS"},"data":[0,0,0,0,0,0,0,0,0,0,0,0,0,0,0,0,0,0,0,0,0,0,0,0,0,0,0,0,0,0,0,0,0,0,0,0,0,0,0,0,0,0,0,0,0,0,0,0,0,0,0,0,0,0,0,0,0,0,0.0323,0.0322,0,0.0253,0.0252,0.0251,0.0193,0.0192,0.0191,0.0191,0.0051,0.0048,0.0045,0,0,0,0,0,0,0,0,0,0,0,0,0,0.0396,0.0396,0.0323,0.0322,0.0321,0.0253,0.0252,0.0251,0.0193,0.0192,0.0191,0.019,0.0052,0.0048,0.0045,0,0,0,0,0,0,0,0,0,0,0,0,0,0.0351,0.0395,0.0324,0.0283,0.0279,0.0253,0.0252,0.0251,0.0193,0.0192,0.0191,0.019,0.0053,0.0049,0.0044,0.0039,0,0,0.003,0.0028,0,0,0,0,0,0,0,0,0.0353,0.0348,0.029,0.0286,0.0281,0.0229,0.0226,0.0176,0.0193,0.0227,0.019,0.0189,0.0104,0.0095,0.0087,0.0032,0.0026,0.003,0.0027,0.0025,0.0024,0,0,0,0,0,0,0,0.0357,0.0351,0.0297,0.0289,0.0283,0.0264,0.0257,0.0217,0.0172,0.0224,0.0219,0.0209,0.0101,0.0092,0.0083,0.0024,0.003,0.0026,0.0023,0.0021,-0.0113,-0.0114,0,0,0,0,0,0,0.0364,0.0354,0.0299,0.0294,0.0313,0.0264,0.0255,0.0248,0.0174,0.0162,0.021,0.0207,0.01,0.0089,0.0078,0.0019,0.0025,0.0021,0.0018,-0.0113,-0.0114,-0.0115,0,0,0,0,0,0,0.0366,0.036,0.0302,0.0321,0.0312,0.0264,0.0256,0.0247,0.0221,0.0164,0.0151,0.0191,0.0099,0.0084,0.0031,0.0015,0.0019,0.0015,-0.0112,-0.0113,-0.0114,-0.0068,0,0,0,0,0,0,0.0369,0.0361,0.0355,0.0322,0.0311,0.0283,0.0256,0.0246,0.0217,0.0211,0.0143,0.013,0.0097,0.0038,0.0026,0.0009,0.0011,-0.011,-0.0112,-0.0114,-0.0068,-0.0067,-0.0067,0,0,0,0,0,0.0372,0.0369,0.0356,0.0348,0.0306,0.0283,0.0276,0.0239,0.0217,0.021,0.016,0.0132,0.0019,0.0034,0.002,0.0001,-0.011,-0.0112,-0.0114,-0.0069,-0.0067,-0.0067,0,0,0,0,0,0,0.0391,0.0362,0.0346,0.0332,0.0308,0.0272,0.0259,0.0235,0.0192,0.0178,0.0126,0.011,0.0057,0.0022,0.0039,-0.0044,-0.0053,-0.0057,-0.0014,-0.0013,-0.0012,0.0012,0.0007,0,0,0,0,0,0.0396,0.0387,0.0356,0.0343,0.0332,0.0294,0.0278,0.0253,0.0213,0.0193,0.0143,0.0087,0.0042,0.0009,-0.0034,-0.0078,-0.0107,-0.0102,-0.0101,-0.01,-0.0091,-0.0158,-0.0161,-0.0121,-0.0121,-0.0121,0,0,0.0398,0.0381,0.0374,0.0347,0.0323,0.0314,0.0281,0.0255,0.024,0.0184,0.0138,0.009,0.0032,-0.0014,-0.0043,-0.0049,-0.0125,-0.0103,-0.0101,-0.0092,-0.016,-0.0164,-0.0167,-0.0122,-0.0122,-0.0122,0,0,0.0406,0.0385,0.0383,0.037,0.0338,0.0318,0.031,0.0267,0.0239,0.0198,0.015,0.0095,0.0024,-0.0019,-0.0049,-0.0071,-0.0114,-0.0096,-0.0077,-0.0142,-0.0145,-0.0149,-0.0174,-0.018,-0.01,-0.01,-0.01,0,0.0405,0.0403,0.0378,0.0376,0.0368,0.0322,0.0322,0.0292,0.0233,0.0214,0.0186,0.008,0.0026,-0.0026,-0.0038,-0.0068,-0.0101,-0.0072,-0.0139,-0.0143,-0.0147,-0.0173,-0.018,-0.0098,-0.0098,-0.0099,-0.0099,0,0.0415,0.0414,0.0411,0.0398,0.0389,0.0378,0.0343,0.0315,0.0275,0.0244,0.018,0.0106,0.0045,0.0011,-0.0022,-0.0082,-0.0092,-0.0124,-0.0134,-0.0148,-0.0175,-0.0183,-0.0095,-0.0096,-0.0097,-0.0097,0,0,0.0404,0.0417,0.0413,0.0425,0.0401,0.0396,0.0374,0.0346,0.0337,0.0261,0.0241,0.0143,0.0099,0.0062,0.0001,-0.0061,-0.0121,-0.0105,-0.0109,-0.0116,-0.0241,-0.0183,-0.0187,-0.0171,-0.0173,-0.0174,-0.0241,0,0.0414,0.0433,0.0433,0.0449,0.0457,0.0431,0.0423,0.0392,0.0355,0.0323,0.0235,0.0188,0.0119,0.0086,0.0011,-0.008,-0.0144,-0.0098,-0.0239,-0.0242,-0.0178,-0.0195,-0.0216,-0.0272,-0.0249,-0.025,-0.0251,0,0.0415,0.0435,0.0456,0.049,0.0491,0.049,0.0482,0.0472,0.0422,0.0394,0.033,0.0267,0.0173,0.0111,-0.0056,-0.0025,-0.0131,-0.0208,-0.0213,-0.0179,-0.02,-0.0261,-0.0288,-0.0266,-0.0265,-0.0264,-0.0263,0,0.0421,0.0451,0.0474,0.0481,0.0503,0.0504,0.0508,0.0483,0.0487,0.0435,0.0432,0.0315,0.0263,0.011,-0.004,-0.0062,-0.0209,-0.0262,-0.0307,-0.0303,-0.0356,-0.0353,-0.0393,-0.0393,-0.0393,-0.0393,-0.0392,0,0.0432,0.0451,0.0478,0.0491,0.0523,0.0528,0.0551,0.0541,0.0536,0.0552,0.0464,0.0458,0.0253,0.0152,-0.0009,-0.0155,-0.019,-0.0295,-0.0321,-0.0337,-0.0331,-0.0359,-0.0355,-0.0395,-0.0395,-0.0394,-0.0394,0,0.0434,0.0448,0.0482,0.0514,0.0525,0.0544,0.0589,0.0614,0.0604,0.0623,0.061,0.055,0.0435,0.0253,0.0033,-0.0091,-0.0252,-0.0303,-0.0276,-0.0296,-0.0313,-0.0306,-0.0369,-0.0367,-0.0366,-0.0365,-0.0364,0,0.044,0.0455,0.0496,0.0522,0.0535,0.0571,0.0605,0.0629,0.067,0.0689,0.071,0.0629,0.0598,0.035,0.0101,-0.0137,-0.0199,-0.0301,-0.0353,-0.0294,-0.0314,-0.0308,-0.0302,-0.0412,-0.0412,-0.0411,-0.0411,0,0.0459,0.0462,0.0493,0.054,0.0579,0.0646,0.07,0.0747,0.0784,0.0821,0.0872,0.0857,0.0645,0.0405,0.0113,-0.0045,-0.0259,-0.0298,-0.0281,-0.0387,-0.0333,-0.0352,-0.0346,-0.0408,-0.0409,-0.0409,-0.0409,-0.0409,0.0466,0.0489,0.052,0.0569,0.0622,0.0714,0.0777,0.086,0.0948,0.1023,0.101,0.0947,0.0607,0.0223,0.0017,-0.019,-0.02,-0.0342,-0.0346,-0.0349,-0.0314,-0.0258,-0.0312,-0.0311,-0.0311,-0.0311,-0.0311,0,0.0477,0.0505,0.0555,0.0622,0.0692,0.0711,0.0838,0.0923,0.1044,0.1072,0.1127,0.0732,0.0512,0.0194,-0.0117,-0.0296,-0.0324,-0.0347,-0.0398,-0.04,-0.0402,-0.0371,-0.0384,-0.0384,-0.0384,-0.0385,0,0,0.0487,0.0525,0.0557,0.0666,0.0714,0.0821,0.0896,0.1035,0.1078,0.1067,0.0963,0.0891,0.045,0.0154,-0.0092,-0.0221,-0.0244,-0.0225,-0.0154,-0.0186,-0.0184,-0.0396,-0.0349,0,0,0,0,0]}],[{"header":{"parameterUnit":"m.s-1","parameterCategory":2,"la1":30.2991,"la2":30.254,"lo1":-89.0895,"lo2":-89.0444,"dy":0.0017,"dx":0.0017,"nx":28,"ny":28,"refTime":"2024-07-13T09:00:00:Z","depth":"4","parameterNumber":2,"parameterNumberName":"U-component_of_CURRENTS"},"data":[0,0,0,0,0,0,0,0,0,0,0,0,0,0,0,0,0,0,0,0,0,0,0,0,0,0,0,0,0,0,0,0,0,0,0,0,0,0,0,0,0,0,0,0,0,0,0,0,0,0,0,0,0,0,0,0,0,0,0.0198,0.0198,0,0.0195,0.0195,0.0194,0.0199,0.02,0.02,0.02,0.0155,0.0153,0.0152,0,0,0,0,0,0,0,0,0,0,0,0,0,0.0178,0.0179,0.0198,0.0198,0.0199,0.0195,0.0195,0.0194,0.0199,0.02,0.02,0.0201,0.0155,0.0153,0.0152,0,0,0,0,0,0,0,0,0,0,0,0,0,0.018,0.0179,0.0198,0.0202,0.0202,0.0195,0.0195,0.0194,0.0199,0.02,0.02,0.0201,0.0156,0.0154,0.0151,0.0127,0,0,0.0144,0.0143,0,0,0,0,0,0,0,0,0.018,0.0181,0.0201,0.0202,0.0202,0.02,0.0171,0.017,0.0199,0.0199,0.02,0.0201,0.0167,0.0163,0.016,0.0125,0.0123,0.0144,0.0143,0.0142,0.0141,0,0,0,0,0,0,0,0.018,0.0181,0.0195,0.0201,0.0202,0.0193,0.0194,0.0171,0.0178,0.0199,0.0199,0.0202,0.0166,0.0162,0.0159,0.0122,0.0144,0.0142,0.0141,0.014,0.0069,0.0068,0,0,0,0,0,0,0.0185,0.0181,0.0195,0.0195,0.0194,0.0193,0.0194,0.0198,0.0179,0.0177,0.0201,0.0202,0.0166,0.0161,0.0157,0.0142,0.0142,0.014,0.0138,0.0069,0.0069,0.0068,0,0,0,0,0,0,0.0185,0.0187,0.0195,0.0189,0.019,0.0194,0.0198,0.0198,0.0205,0.0182,0.0179,0.0209,0.0166,0.016,0.014,0.0139,0.0139,0.0136,0.007,0.0069,0.0069,0.0101,0,0,0,0,0,0,0.0184,0.0187,0.0193,0.019,0.0191,0.0199,0.0198,0.0198,0.0206,0.0207,0.0187,0.0183,0.0166,0.0144,0.0138,0.0136,0.0135,0.0071,0.007,0.0069,0.0101,0.0102,0.0103,0,0,0,0,0,0.0184,0.0192,0.0194,0.0196,0.0199,0.02,0.0199,0.0202,0.0206,0.021,0.0192,0.0184,0.0133,0.0141,0.0135,0.0132,0.0071,0.007,0.0069,0.01,0.0102,0.0103,0,0,0,0,0,0,0.0186,0.0193,0.0195,0.0205,0.0207,0.0202,0.0207,0.0208,0.0198,0.02,0.0178,0.0172,0.0153,0.0135,0.0145,0.0107,0.01,0.0098,0.0127,0.0127,0.0128,0.015,0.0133,0,0,0,0,0,0.019,0.0199,0.0201,0.0209,0.0212,0.0211,0.0213,0.0214,0.0206,0.0203,0.019,0.0167,0.014,0.013,0.0106,0.0086,0.0085,0.0079,0.008,0.0081,0.0093,0.0075,0.0076,0.0065,0.0065,0.0065,0,0,0.0191,0.0198,0.0202,0.021,0.0212,0.0217,0.0214,0.0221,0.0221,0.0197,0.0194,0.0171,0.0135,0.0114,0.0104,0.0101,0.0086,0.0079,0.0081,0.0092,0.0074,0.0075,0.0077,0.0064,0.0064,0.0064,0,0,0.02,0.0207,0.0219,0.0222,0.0231,0.0228,0.0233,0.0234,0.0232,0.0223,0.0201,0.0181,0.0148,0.0123,0.0103,0.0093,0.009,0.0083,0.0107,0.0089,0.0091,0.0092,0.011,0.0113,0.0085,0.0085,0.0085,0,0.0204,0.0219,0.0221,0.0233,0.0238,0.0235,0.0245,0.0239,0.0232,0.0229,0.0227,0.018,0.0152,0.0119,0.0117,0.0096,0.01,0.0109,0.0093,0.0094,0.0094,0.0113,0.0115,0.0086,0.0086,0.0086,0.0086,0,0.022,0.0234,0.0241,0.0255,0.0258,0.0266,0.0261,0.0262,0.026,0.0254,0.0233,0.0197,0.0175,0.0154,0.0134,0.0118,0.0125,0.0097,0.0096,0.0098,0.0117,0.0119,0.0088,0.0088,0.0087,0.0087,0,0,0.0224,0.0249,0.0253,0.0265,0.0272,0.0277,0.0275,0.0274,0.0278,0.0265,0.0265,0.0218,0.0214,0.0192,0.0161,0.0143,0.0152,0.013,0.0129,0.0161,0.0146,0.0167,0.0172,0.0123,0.0123,0.0123,0.0166,0,0.0238,0.027,0.0274,0.0294,0.0308,0.0302,0.0303,0.0299,0.0293,0.0291,0.0256,0.0246,0.0222,0.0218,0.0196,0.0156,0.0156,0.0146,0.013,0.013,0.0158,0.0173,0.0123,0.0167,0.0167,0.0168,0.0168,0,0.0251,0.0273,0.0303,0.032,0.0326,0.0337,0.0343,0.0342,0.033,0.0328,0.0317,0.0297,0.0275,0.0251,0.0213,0.0211,0.0195,0.0166,0.0166,0.0177,0.0154,0.0158,0.0171,0.0171,0.0171,0.0171,0.017,0,0.0256,0.0288,0.0316,0.0323,0.0343,0.0356,0.0365,0.0361,0.0364,0.0364,0.0372,0.034,0.0336,0.0296,0.0254,0.0239,0.0214,0.0181,0.0191,0.0194,0.0148,0.0146,0.0169,0.0169,0.0169,0.0169,0.0168,0,0.026,0.0281,0.0329,0.0343,0.0373,0.0382,0.0403,0.0406,0.0412,0.0415,0.0405,0.038,0.0347,0.0322,0.0277,0.0252,0.024,0.0213,0.0204,0.0163,0.0162,0.0151,0.0149,0.017,0.017,0.017,0.0169,0,0.0248,0.0282,0.0318,0.0361,0.0378,0.0401,0.0434,0.0438,0.046,0.0464,0.0473,0.0433,0.0396,0.0372,0.0311,0.0297,0.0255,0.0251,0.0247,0.0234,0.0248,0.0246,0.0278,0.0279,0.028,0.028,0.0281,0,0.0241,0.0262,0.0332,0.0358,0.0382,0.042,0.0433,0.0459,0.046,0.0467,0.0454,0.0446,0.0415,0.0359,0.0315,0.029,0.027,0.0295,0.0245,0.027,0.0258,0.0255,0.0252,0.0282,0.0283,0.0283,0.0283,0,0.0217,0.0254,0.0284,0.0349,0.0384,0.0406,0.0434,0.0434,0.0452,0.0492,0.0447,0.0429,0.0395,0.0336,0.0354,0.0305,0.03,0.0304,0.0301,0.0254,0.0276,0.0262,0.0259,0.0286,0.0286,0.0285,0.0285,0,0.0198,0.0216,0.0272,0.0326,0.0377,0.0382,0.0388,0.0392,0.0403,0.0434,0.0399,0.0371,0.037,0.034,0.0312,0.0323,0.0306,0.0313,0.0309,0.0305,0.0292,0.0323,0.0354,0,0,0,0,0,0.0177,0.0201,0.0239,0.0295,0.0348,0.0374,0.0385,0.0382,0.041,0.039,0.0411,0.0373,0.0354,0.0303,0.0315,0.0303,0.0296,0.0318,0.0299,0.0303,0.03,0.028,0,0,0,0,0,0,0.0155,0.02,0.0225,0.0275,0.0307,0.0337,0.0338,0.0337,0.0323,0.0358,0.0321,0.0398,0.0342,0.0357,0.0321,0.0322,0.0316,0.0327,0.0328,0.0305,0.0302,0.0299,0.0277,0,0,0,0,0]},{"header":{"parameterUnit":"m.s-1","parameterCategory":2,"la1":30.2991,"la2":30.254,"lo1":-89.0895,"lo2":-89.0444,"dy":0.0017,"dx":0.0017,"nx":28,"ny":28,"refTime":"2024-07-13T09:00:00:Z","depth":"4","parameterNumber":3,"parameterNumberName":"V-component_of_CURRENTS"},"data":[0,0,0,0,0,0,0,0,0,0,0,0,0,0,0,0,0,0,0,0,0,0,0,0,0,0,0,0,0,0,0,0,0,0,0,0,0,0,0,0,0,0,0,0,0,0,0,0,0,0,0,0,0,0,0,0,0,0,-0.014,-0.0141,0,-0.0202,-0.0203,-0.0204,-0.0253,-0.0253,-0.0254,-0.0254,-0.0305,-0.0306,-0.0307,0,0,0,0,0,0,0,0,0,0,0,0,0,-0.0087,-0.0088,-0.014,-0.0141,-0.0142,-0.0202,-0.0203,-0.0204,-0.0253,-0.0253,-0.0254,-0.0254,-0.0304,-0.0306,-0.0307,0,0,0,0,0,0,0,0,0,0,0,0,0,-0.0126,-0.0088,-0.014,-0.0173,-0.0177,-0.0202,-0.0203,-0.0204,-0.0253,-0.0253,-0.0254,-0.0255,-0.0304,-0.0305,-0.0307,-0.0302,0,0,-0.0311,-0.0312,0,0,0,0,0,0,0,0,-0.0124,-0.0128,-0.0168,-0.0171,-0.0175,-0.022,-0.0203,-0.0236,-0.0253,-0.0224,-0.0254,-0.0255,-0.0274,-0.0278,-0.029,-0.0305,-0.0307,-0.0311,-0.0312,-0.0313,-0.0313,0,0,0,0,0,0,0,-0.0121,-0.0126,-0.0165,-0.0168,-0.0173,-0.0192,-0.0199,-0.021,-0.0245,-0.0227,-0.0231,-0.0236,-0.0277,-0.0288,-0.0291,-0.0307,-0.0311,-0.0312,-0.0313,-0.0314,-0.0371,-0.0372,0,0,0,0,0,0,-0.0111,-0.0123,-0.0163,-0.0167,-0.015,-0.0193,-0.02,-0.0205,-0.0245,-0.0252,-0.0236,-0.0238,-0.0285,-0.0289,-0.0293,-0.0327,-0.0313,-0.0314,-0.0315,-0.0371,-0.0372,-0.0372,0,0,0,0,0,0,-0.0109,-0.0114,-0.0161,-0.0146,-0.0154,-0.0193,-0.0199,-0.0206,-0.0233,-0.0252,-0.0259,-0.0257,-0.0286,-0.0291,-0.0322,-0.0328,-0.0315,-0.0316,-0.037,-0.0371,-0.0372,-0.037,0,0,0,0,0,0,-0.0107,-0.0113,-0.0121,-0.0145,-0.0154,-0.0185,-0.0198,-0.0207,-0.0235,-0.0239,-0.0272,-0.0277,-0.0287,-0.032,-0.0324,-0.0329,-0.0317,-0.0369,-0.037,-0.0372,-0.037,-0.0371,-0.0373,0,0,0,0,0,-0.0105,-0.0109,-0.0121,-0.0126,-0.0161,-0.0185,-0.0192,-0.0222,-0.0235,-0.0249,-0.0276,-0.0277,-0.0331,-0.0322,-0.0326,-0.0332,-0.0368,-0.037,-0.0372,-0.0369,-0.0371,-0.0373,0,0,0,0,0,0,-0.0089,-0.0115,-0.0128,-0.014,-0.0166,-0.0194,-0.0209,-0.0228,-0.0261,-0.0269,-0.0287,-0.0294,-0.0323,-0.033,-0.032,-0.0354,-0.0349,-0.0351,-0.0345,-0.0347,-0.0349,-0.0349,-0.0318,0,0,0,0,0,-0.0088,-0.01,-0.0127,-0.0139,-0.0151,-0.0182,-0.0198,-0.022,-0.0247,-0.0263,-0.0285,-0.0309,-0.0329,-0.0341,-0.036,-0.0377,-0.0374,-0.0384,-0.0386,-0.0387,-0.0391,-0.0388,-0.039,-0.0377,-0.0377,-0.0377,0,0,-0.0086,-0.0101,-0.0109,-0.0137,-0.0159,-0.0181,-0.0194,-0.0222,-0.0244,-0.0262,-0.0299,-0.0317,-0.0336,-0.036,-0.0373,-0.0368,-0.0389,-0.0389,-0.0389,-0.0393,-0.039,-0.0391,-0.0392,-0.0379,-0.0378,-0.0378,0,0,-0.0084,-0.01,-0.0112,-0.0135,-0.0168,-0.0187,-0.0197,-0.0232,-0.0253,-0.0287,-0.0306,-0.0329,-0.0361,-0.0375,-0.0385,-0.0406,-0.0399,-0.0412,-0.0417,-0.0415,-0.0415,-0.0416,-0.0411,-0.0411,-0.041,-0.041,-0.041,0,-0.0083,-0.0102,-0.012,-0.014,-0.0161,-0.019,-0.0212,-0.0234,-0.0278,-0.0294,-0.0301,-0.0354,-0.0367,-0.0394,-0.0403,-0.0408,-0.0406,-0.0406,-0.0415,-0.0416,-0.0416,-0.0411,-0.0411,-0.041,-0.041,-0.041,-0.041,0,-0.0093,-0.0115,-0.0123,-0.0158,-0.018,-0.0204,-0.0235,-0.0259,-0.0284,-0.0308,-0.0345,-0.0367,-0.0395,-0.0402,-0.0409,-0.0423,-0.042,-0.0417,-0.0406,-0.0417,-0.0411,-0.0411,-0.041,-0.041,-0.041,-0.041,0,0,-0.0077,-0.0122,-0.0127,-0.0149,-0.0195,-0.0213,-0.0244,-0.028,-0.03,-0.0337,-0.0364,-0.0397,-0.0407,-0.042,-0.0429,-0.0431,-0.0428,-0.0426,-0.0425,-0.0413,-0.0421,-0.0415,-0.0415,-0.0424,-0.0424,-0.0424,-0.0414,0,-0.0085,-0.0117,-0.0142,-0.0181,-0.0202,-0.0236,-0.0261,-0.0296,-0.0324,-0.0354,-0.0379,-0.0404,-0.0413,-0.0421,-0.0428,-0.0432,-0.0429,-0.0431,-0.0419,-0.0419,-0.0406,-0.0415,-0.0425,-0.0414,-0.0414,-0.0414,-0.0414,0,-0.0094,-0.0114,-0.0147,-0.0194,-0.0206,-0.0229,-0.0272,-0.0298,-0.0339,-0.0358,-0.0389,-0.0409,-0.0429,-0.0426,-0.0438,-0.0439,-0.043,-0.0429,-0.0428,-0.0425,-0.0414,-0.0403,-0.0414,-0.0414,-0.0414,-0.0414,-0.0414,0,-0.0076,-0.0123,-0.0146,-0.0164,-0.0214,-0.0231,-0.0256,-0.0297,-0.0312,-0.0352,-0.0364,-0.0403,-0.0408,-0.0419,-0.0421,-0.0427,-0.0425,-0.0428,-0.0416,-0.0415,-0.0422,-0.0422,-0.0425,-0.0425,-0.0425,-0.0425,-0.0425,0,-0.0078,-0.0103,-0.0136,-0.0151,-0.0173,-0.0215,-0.0238,-0.0266,-0.0298,-0.0307,-0.0356,-0.0362,-0.0403,-0.0412,-0.042,-0.0419,-0.0419,-0.042,-0.0413,-0.0422,-0.0422,-0.0422,-0.0421,-0.0425,-0.0425,-0.0425,-0.0425,0,-0.0066,-0.009,-0.0117,-0.0156,-0.0164,-0.0179,-0.0212,-0.0225,-0.0257,-0.0267,-0.0274,-0.0323,-0.034,-0.0376,-0.0387,-0.0402,-0.0408,-0.04,-0.0404,-0.0398,-0.0402,-0.0402,-0.0398,-0.0398,-0.0398,-0.0398,-0.0398,0,-0.0066,-0.0076,-0.0104,-0.0107,-0.0124,-0.0145,-0.0154,-0.0194,-0.0196,-0.0232,-0.0226,-0.0261,-0.0291,-0.0313,-0.0354,-0.0384,-0.0382,-0.0387,-0.0407,-0.0406,-0.04,-0.04,-0.04,-0.0397,-0.0397,-0.0397,-0.0397,0,-0.0062,-0.0069,-0.0083,-0.0077,-0.0084,-0.01,-0.011,-0.0107,-0.0141,-0.0165,-0.0179,-0.022,-0.0245,-0.0295,-0.032,-0.0338,-0.0395,-0.0385,-0.0386,-0.0404,-0.0404,-0.0399,-0.0399,-0.0396,-0.0397,-0.0397,-0.0397,0,-0.0051,-0.0055,-0.0056,-0.0051,-0.0053,-0.0054,-0.0072,-0.0077,-0.0089,-0.0123,-0.0117,-0.0176,-0.0211,-0.0268,-0.0286,-0.0318,-0.0331,-0.034,-0.0344,-0.0345,-0.0341,-0.0334,-0.0299,0,0,0,0,0,-0.0037,-0.0033,-0.0031,-0.0031,-0.0027,-0.0028,-0.0039,-0.0057,-0.0073,-0.0072,-0.0098,-0.0122,-0.0188,-0.0224,-0.0253,-0.0285,-0.0336,-0.032,-0.0348,-0.0392,-0.0393,-0.0398,0,0,0,0,0,0,-0.0032,-0.0023,-0.0024,-0.0002,0.0005,0.0002,-0.0006,-0.0027,-0.0028,-0.005,-0.0083,-0.0117,-0.0179,-0.0161,-0.0247,-0.0261,-0.0281,-0.0356,-0.0357,-0.0392,-0.0393,-0.0393,-0.0399,0,0,0,0,0]}]]